Location: Bluff Heights
(33.7692°N, 118.1592°W)
Time: 19:31:23
(UTC+00:00)

Courier 1B Rocket - Visible Passes

Search period start: 27 July 2021 00:00
Search period end: 06 August 2021 00:00
Orbit: 920 x 1202 km, 28.2° (Epoch: 26 July)

Date Brightness Start Highest point End Pass type
(mag) Time Alt. Az. Time Alt. Az. Time Alt. Az.
27 Jul 7.1 09:45:17 13° ESE 09:45:17 13° ESE 09:46:13 10° ESE visible
27 Jul 5.5 11:31:38 25° SW 11:34:39 41° SSE 11:40:27 10° E visible
28 Jul 5.8 10:34:15 34° SSE 10:34:15 34° SSE 10:39:22 10° E visible
28 Jul 5.2 12:20:40 10° WSW 12:26:46 51° S 12:32:47 10° ESE visible
29 Jul 7.0 09:36:51 15° ESE 09:36:51 15° ESE 09:38:09 10° ESE visible
29 Jul 5.3 11:23:13 31° SW 11:25:51 48° S 11:31:49 10° E visible
30 Jul 5.6 10:25:51 40° SSE 10:25:51 40° SSE 10:30:50 10° E visible
30 Jul 5.2 12:12:12 12° WSW 12:18:01 52° S 12:24:03 10° ESE visible
31 Jul 7.0 09:28:30 16° ESE 09:28:30 16° ESE 09:29:48 10° E visible
31 Jul 5.1 11:14:52 36° SW 11:17:05 52° S 11:23:08 10° ESE visible
01 Aug 5.6 10:17:33 42° SE 10:17:33 42° SE 10:22:14 10° E visible
01 Aug 5.2 12:03:56 14° WSW 12:09:15 50° S 12:15:15 10° ESE visible
02 Aug 7.1 09:20:18 15° ESE 09:20:18 15° ESE 09:21:17 10° E visible
02 Aug 5.1 11:06:40 43° SW 11:08:19 53° S 11:14:26 10° ESE visible
03 Aug 5.8 10:09:28 38° SE 10:09:28 38° SE 10:13:34 10° ESE visible
03 Aug 5.3 11:55:51 17° WSW 12:00:27 44° SSW 12:06:22 10° ESE visible
04 Aug 7.3 09:12:22 11° E 09:12:22 11° E 09:12:41 10° E visible
04 Aug 5.1 10:58:44 48° SSW 10:59:32 51° S 11:05:39 10° ESE visible
05 Aug 6.2 10:01:45 29° ESE 10:01:45 29° ESE 10:04:52 10° ESE visible
05 Aug 5.5 11:48:08 22° WSW 11:51:36 37° SSW 11:57:21 10° SE visible
